GW5891 Weather Reports


time (UTC)temp
C
wind
direction
speed
KPH
gust
KPH
rain 1hr
cm
rain 24hr
cm
rain mn
cm
humidity
%
barometer
mb
20260906060923 20 20 1.6 3.2 0.00 0.00 0.00 96 1013.6
20260906060421 20 357 3.2 3.2 0.00 0.00 0.00 96 1013.8
20260906055917 20 357 1.6 3.2 0.00 0.00 0.00 95 1013.8
20260906055413 20 318 0.0 1.6 0.00 0.00 0.00 95 1013.8
20260906054908 20 343 0.0 0.0 0.00 0.00 0.00 95 1014.0
20260906054402 20 349 1.6 3.2 0.00 0.00 0.00 95 1013.8
20260906053858 21 336 3.2 3.2 0.00 0.00 0.00 95 1014.0
20260906053354 21 333 1.6 3.2 0.00 0.00 0.00 95 1014.1
20260906052850 21 15 1.6 3.2 0.00 0.00 0.00 95 1014.1
20260906052346 21 339 3.2 3.2 0.00 0.00 0.00 95 1014.4
20260906051843 21 23 0.0 3.2 0.00 0.00 0.00 95 1014.0
20260906051342 21 336 3.2 3.2 0.00 0.00 0.00 95 1014.0
20260906050838 21 12 1.6 3.2 0.00 0.00 0.00 94 1014.1
20260906050332 21 340 3.2 3.2 0.00 0.00 0.00 94 1014.4
20260906045831 21 17 1.6 3.2 0.00 0.00 0.00 94 1014.6
20260906045326 21 332 1.6 1.6 0.00 0.00 0.00 94 1014.5
20260906044823 21 332 1.6 3.2 0.00 0.00 0.00 94 1014.1
20260906044317 21 333 3.2 3.2 0.00 0.00 0.00 93 1014.1
20260906043813 21 36 1.6 3.2 0.00 0.00 0.00 93 1014.1
20260906043309 21 18 1.6 3.2 0.00 0.00 0.00 93 1014.2
20260906042808 21 25 1.6 3.2 0.00 0.00 0.00 92 1014.0
20260906042307 21 347 1.6 3.2 0.00 0.00 0.00 92 1014.1
20260906041803 21 344 3.2 3.2 0.00 0.00 0.00 92 1014.2
20260906041258 21 350 3.2 3.2 0.00 0.00 0.00 92 1014.4
20260906040754 21 21 3.2 3.2 0.00 0.00 0.00 92 1014.6
20260906040249 21 9 3.2 3.2 0.00 0.00 0.00 92 1014.5
20260906035744 21 355 3.2 3.2 0.00 0.05 0.05 92 1014.5
20260906035240 21 346 0.0 3.2 0.00 0.05 0.05 92 1014.4
20260906034740 21 30 1.6 4.8 0.00 0.05 0.05 92 1014.5
20260906034234 21 332 3.2 4.8 0.00 0.05 0.05 92 1014.6
20260906033730 21 347 3.2 3.2 0.00 0.05 0.05 91 1014.5
20260906033230 21 18 1.6 3.2 0.00 0.05 0.05 91 1014.6
20260906032727 22 32 1.6 3.2 0.00 0.05 0.05 91 1014.7
20260906032226 22 228 0.0 1.6 0.00 0.05 0.05 90 1014.5
20260906031721 22 3 0.0 1.6 0.00 0.05 0.05 88 1014.4
20260906031217 22 332 0.0 1.6 0.00 0.05 0.05 88 1014.5
20260906030717 22 354 3.2 3.2 0.00 0.05 0.05 89 1014.6
20260906030212 22 0 3.2 3.2 0.00 0.05 0.05 90 1014.6
20260906025711 22 355 3.2 3.2 0.00 0.05 0.05 90 1014.6
20260906025206 22 18 1.6 3.2 0.00 0.05 0.05 90 1014.4
20260906024700 22 358 3.2 3.2 0.00 0.05 0.05 90 1014.2
20260906024159 22 0 3.2 3.2 0.00 0.05 0.05 89 1014.4
20260906023655 22 0 3.2 3.2 0.00 0.05 0.05 89 1014.2
20260906023155 22 6 3.2 3.2 0.00 0.05 0.05 89 1014.2
20260906022650 22 340 3.2 3.2 0.00 0.05 0.05 88 1014.2
20260906022146 22 353 3.2 3.2 0.00 0.05 0.05 88 1014.4
20260906021642 22 15 3.2 3.2 0.00 0.05 0.05 88 1014.4
20260906021140 22 1 3.2 3.2 0.00 0.05 0.05 87 1014.6
20260906020635 22 345 0.0 1.6 0.00 0.05 0.05 88 1014.6
20260906020130 22 5 0.0 0.0 0.00 0.05 0.05 87 1014.0
20260906015629 23 36 0.0 1.6 0.00 0.05 0.05 85 1013.9
20260906015129 23 7 0.0 1.6 0.00 0.05 0.05 83 1014.1
20260906014628 23 44 0.0 0.0 0.00 0.05 0.05 85 1013.9
20260906014125 23 4 0.0 3.2 0.00 0.05 0.05 83 1014.0
20260906013620 23 18 3.2 3.2 0.00 0.05 0.05 83 1013.9
20260906013116 23 24 1.6 3.2 0.00 0.05 0.05 85 1014.0
20260906012610 23 16 0.0 3.2 0.00 0.05 0.05 83 1013.9
20260906012105 23 0 1.6 3.2 0.00 0.05 0.05 84 1014.0
20260906011601 23 16 1.6 3.2 0.00 0.05 0.05 83 1013.7
20260906011100 23 358 3.2 3.2 0.00 0.05 0.05 84 1013.9
20260906010556 23 342 3.2 3.2 0.00 0.05 0.05 83 1013.8
20260906010052 23 10 1.6 3.2 0.00 0.05 0.05 82 1013.7
20260906005551 23 359 1.6 3.2 0.00 0.05 0.05 84 1013.6
20260906005050 24 337 3.2 3.2 0.00 0.05 0.05 82 1013.7
20260906004550 24 25 1.6 1.6 0.00 0.05 0.05 80 1013.5
20260906004045 25 64 1.6 3.2 0.00 0.05 0.05 81 1013.5
20260906003540 25 5 1.6 6.4 0.00 0.05 0.05 79 1013.3
20260906003036 25 6 3.2 4.8 0.00 0.05 0.05 73 1013.1
20260906002531 25 337 3.2 4.8 0.00 0.05 0.05 75 1013.1
20260906002025 25 343 3.2 6.4 0.00 0.05 0.05 79 1013.0
20260906001521 25 338 3.2 4.8 0.00 0.05 0.05 77 1012.8
20260906001021 25 353 3.2 4.8 0.00 0.05 0.05 76 1013.0
20260906000517 25 332 4.8 4.8 0.00 0.05 0.05 76 1012.9
20260906000012 24 350 3.2 6.4 0.00 0.05 0.05 82 1012.6
20260905235511 24 332 4.8 4.8 0.00 0.05 0.05 84 1012.6
20260905235007 24 332 4.8 4.8 0.00 0.05 0.05 83 1012.7
20260905234503 24 348 3.2 4.8 0.00 0.05 0.05 88 1012.8
20260905234002 24 316 3.2 4.8 0.00 0.05 0.05 87 1012.8
20260905233457 24 349 3.2 4.8 0.00 0.05 0.05 88 1012.7
20260905232956 25 323 3.2 3.2 0.00 0.05 0.05 88 1012.7
20260905232452 25 347 1.6 3.2 0.00 0.05 0.05 87 1012.7
20260905231948 25 349 3.2 3.2 0.00 0.05 0.05 86 1012.6
20260905231444 25 344 3.2 3.2 0.00 0.05 0.05 85 1012.6
20260905230940 25 354 3.2 3.2 0.00 0.05 0.05 84 1012.7
20260905230438 25 343 3.2 4.8 0.00 0.05 0.05 83 1012.6
20260905225937 25 0 3.2 3.2 0.00 0.05 0.05 82 1012.6
20260905225432 26 324 0.0 3.2 0.00 0.05 0.05 82 1012.8
20260905224927 26 345 3.2 3.2 0.00 0.05 0.05 81 1012.8
20260905224423 26 338 3.2 4.8 0.00 0.05 0.05 79 1012.8
20260905223922 26 342 3.2 3.2 0.00 0.05 0.05 77 1012.7
20260905223420 27 345 1.6 3.2 0.00 0.05 0.05 76 1012.7
20260905222920 27 357 1.6 1.6 0.00 0.05 0.05 75 1012.9
20260905222419 27 0 1.6 3.2 0.00 0.05 0.05 75 1012.9
20260905221916 27 4 0.0 1.6 0.00 0.05 0.05 72 1013.0
20260905221412 27 2 3.2 4.8 0.00 0.05 0.05 73 1013.0
20260905220908 27 347 1.6 3.2 0.00 0.05 0.05 72 1012.9
20260905220404 27 357 3.2 3.2 0.00 0.05 0.05 72 1013.0
20260905215903 27 316 0.0 1.6 0.00 0.05 0.05 73 1013.1
20260905215358 27 17 0.0 1.6 0.00 0.05 0.05 73 1013.0
20260905214855 27 342 3.2 3.2 0.00 0.05 0.05 72 1013.0
20260905214350 27 25 0.0 3.2 0.00 0.05 0.05 72 1013.0
20260905213844 27 2 0.0 1.6 0.00 0.05 0.05 72 1013.2
20260905213342 27 62 3.2 3.2 0.00 0.05 0.05 70 1013.0
20260905212841 27 22 0.0 0.0 0.00 0.05 0.05 71 1012.9
20260905212336 28 351 0.0 1.6 0.00 0.05 0.05 72 1013.0
20260905211835 28 23 0.0 3.2 0.00 0.05 0.05 67 1012.9
20260905211331 28 44 0.0 0.0 0.00 0.05 0.05 69 1013.0
20260905210828 28 356 0.0 1.6 0.00 0.05 0.05 70 1013.2
20260905210327 28 49 0.0 4.8 0.00 0.05 0.05 67 1013.3
20260905205826 28 26 0.0 3.2 0.00 0.05 0.05 67 1013.3
20260905205321 27 335 1.6 1.6 0.00 0.05 0.05 67 1013.3
20260905204820 27 45 0.0 1.6 0.00 0.05 0.05 68 1013.5
20260905204317 27 85 3.2 3.2 0.00 0.05 0.05 71 1013.4
20260905203815 27 329 0.0 1.6 0.00 0.05 0.05 75 1013.4
20260905203312 27 335 0.0 0.0 0.00 0.05 0.05 73 1013.4
20260905202807 27 32 0.0 4.8 0.00 0.05 0.05 71 1013.4
20260905202301 27 347 1.6 4.8 0.00 0.05 0.05 74 1013.4
20260905201757 26 32 1.6 3.2 0.00 0.05 0.05 73 1013.5
20260905201252 26 357 3.2 3.2 0.00 0.05 0.05 73 1013.4
20260905200747 26 343 3.2 4.8 0.00 0.05 0.05 72 1013.5
20260905200243 26 308 0.0 3.2 0.00 0.05 0.05 75 1013.5
20260905195741 26 335 0.0 1.6 0.00 0.05 0.05 72 1013.4
20260905195236 26 315 0.0 3.2 0.00 0.05 0.05 72 1013.5
20260905194732 26 343 3.2 3.2 0.00 0.05 0.05 73 1013.4
20260905194231 26 14 3.2 4.8 0.00 0.05 0.05 73 1013.5
20260905193731 26 339 3.2 4.8 0.00 0.05 0.05 74 1013.7
20260905193225 25 347 4.8 4.8 0.00 0.05 0.05 74 1013.7
20260905192721 25 351 3.2 3.2 0.00 0.05 0.05 76 1013.8
20260905192218 25 50 0.0 3.2 0.00 0.05 0.05 73 1013.7
20260905191717 25 345 3.2 3.2 0.00 0.05 0.05 77 1013.5
20260905191215 25 344 3.2 3.2 0.00 0.05 0.05 83 1013.8
20260905190714 25 51 0.0 3.2 0.00 0.05 0.05 83 1013.9
20260905190213 25 25 3.2 3.2 0.00 0.05 0.05 85 1013.8
20260905185712 24 336 0.0 3.2 0.00 0.05 0.05 84 1013.6
20260905185207 24 4 1.6 3.2 0.00 0.05 0.05 85 1013.5
20260905184707 24 39 4.8 6.4 0.00 0.05 0.05 83 1013.3
20260905184205 24 347 6.4 8.0 0.00 0.05 0.05 80 1013.4
20260905183659 24 31 0.0 1.6 0.00 0.05 0.05 82 1013.4
20260905183155 24 269 0.0 1.6 0.00 0.05 0.05 81 1013.3
20260905182654 25 334 3.2 3.2 0.00 0.05 0.05 79 1013.3
20260905182154 25 342 4.8 4.8 0.00 0.05 0.05 79 1013.4
20260905181650 25 43 1.6 3.2 0.05 0.05 0.05 77 1013.3
20260905181148 26 344 1.6 3.2 0.13 0.05 0.05 71 1013.7
20260905180643 27 7 3.2 3.2 0.13 0.03 0.03 65 1014.0
20260905180139 27 27 3.2 6.4 0.13 0.03 0.03 62 1014.6
20260905175637 28 344 6.4 8.0 0.05 0.00 0.00 60 1014.7
20260905175133 28 335 4.8 11.3 0.00 0.00 0.00 57 1015.1
20260905174629 28 342 3.2 9.7 0.00 0.00 0.00 57 1014.9
20260905174124 29 336 8.0 8.0 0.00 0.00 0.00 58 1015.0
20260905173620 29 323 9.7 9.7 0.00 0.00 0.00 58 1015.0
20260905173116 30 324 6.4 8.0 0.00 0.00 0.00 68 1014.9
20260905172614 30 265 3.2 9.7 0.00 0.00 0.00 57 1015.1
20260905172109 31 180 1.6 3.2 0.00 0.00 0.00 60 1015.3
20260905171606 31 25 3.2 4.8 0.00 0.00 0.00 59 1015.2
20260905171101 31 15 3.2 4.8 0.00 0.00 0.00 61 1015.2
20260905170558 31 322 4.8 4.8 0.00 0.00 0.00 57 1015.2
20260905170053 32 6 3.2 4.8 0.00 0.00 0.00 56 1015.2
20260905165548 32 20 3.2 6.4 0.00 0.00 0.00 55 1015.0
20260905165043 32 323 6.4 8.0 0.00 0.00 0.00 55 1015.3
20260905164543 32 330 4.8 11.3 0.00 0.00 0.00 54 1015.4
20260905164038 32 36 1.6 8.0 0.00 0.00 0.00 56 1015.4
20260905163534 32 335 12.9 14.5 0.00 0.00 0.00 55 1015.5
20260905163030 32 359 6.4 8.0 0.00 0.00 0.00 56 1015.1
20260905162526 32 313 1.6 4.8 0.00 0.00 0.00 58 1015.0
20260905162020 32 14 3.2 6.4 0.00 0.00 0.00 58 1015.1
20260905161520 33 82 0.0 6.4 0.00 0.00 0.00 58 1015.1
20260905161018 32 47 0.0 3.2 0.00 0.00 0.00 58 1015.3
20260905160517 32 15 3.2 6.4 0.00 0.00 0.00 59 1015.3
20260905160017 32 333 6.4 8.0 0.00 0.00 0.00 58 1015.4
20260905155517 32 33 3.2 3.2 0.00 0.00 0.00 63 1015.8
20260905155015 32 0 3.2 4.8 0.00 0.00 0.00 61 1015.5
20260905154511 31 304 3.2 3.2 0.00 0.00 0.00 62 1015.6
20260905154007 31 282 0.0 4.8 0.00 0.00 0.00 65 1015.5
20260905153503 31 31 1.6 4.8 0.00 0.00 0.00 63 1015.3
20260905153002 30 56 3.2 3.2 0.00 0.00 0.00 68 1015.5
20260905152502 30 344 1.6 3.2 0.00 0.00 0.00 70 1015.4
20260905151957 30 224 0.0 3.2 0.00 0.00 0.00 72 1015.2
20260905151453 30 43 0.0 1.6 0.00 0.00 0.00 73 1015.2
20260905150953 29 47 1.6 3.2 0.00 0.00 0.00 75 1015.2
20260905150448 28 44 0.0 3.2 0.00 0.00 0.00 77 1015.0
20260905145944 28 31 0.0 3.2 0.00 0.00 0.00 80 1015.3
20260905145439 28 316 0.0 1.6 0.00 0.00 0.00 78 1015.2
20260905144938 28 325 1.6 1.6 0.00 0.00 0.00 79 1015.4
20260905144434 28 335 0.0 0.0 0.00 0.00 0.00 79 1015.3
20260905143932 28 40 3.2 3.2 0.00 0.00 0.00 78 1015.3
20260905143426 27 60 0.0 3.2 0.00 0.00 0.00 80 1015.4
20260905142926 27 41 1.6 3.2 0.00 0.00 0.00 81 1015.3
20260905142425 27 3 1.6 3.2 0.00 0.00 0.00 82 1015.4
20260905141921 26 335 0.0 1.6 0.00 0.00 0.00 85 1015.5
20260905141416 26 351 3.2 3.2 0.00 0.00 0.00 85 1015.5
20260905140912 26 326 1.6 1.6 0.00 0.00 0.00 85 1015.5
20260905140407 26 0 1.6 3.2 0.00 0.00 0.00 86 1015.4
20260905135906 25 44 0.0 3.2 0.00 0.00 0.00 87 1015.3
20260905135401 25 48 0.0 1.6 0.00 0.00 0.00 88 1015.3
20260905134857 25 52 0.0 1.6 0.00 0.00 0.00 89 1015.3
20260905134355 25 124 0.0 1.6 0.00 0.00 0.00 90 1015.4
20260905133850 24 26 0.0 1.6 0.00 0.00 0.00 92 1015.3
20260905133345 24 19 1.6 3.2 0.00 0.00 0.00 94 1015.6
20260905132844 23 358 3.2 3.2 0.00 0.00 0.00 95 1015.6
20260905132341 23 5 0.0 1.6 0.00 0.00 0.00 97 1015.7
20260905131840 23 12 0.0 3.2 0.00 0.00 0.00 98 1015.6
20260905131336 22 333 1.6 3.2 0.00 0.00 0.00 98 1015.6
20260905130831 22 26 1.6 1.6 0.00 0.00 0.00 99 1015.7
20260905130329 22 7 0.0 1.6 0.00 0.00 0.00 99 1016.0
20260905125825 22 3 0.0 1.6 0.00 0.00 0.00 99 1015.8
20260905125320 22 11 0.0 1.6 0.00 0.00 0.00 99 1015.7
20260905124816 22 319 0.0 1.6 0.00 0.00 0.00 99 1015.9
20260905124312 22 315 0.0 0.0 0.00 0.00 0.00 99 1015.9
20260905123807 21 40 0.0 0.0 0.00 0.00 0.00 99 1015.8
20260905123304 21 3 0.0 0.0 0.00 0.00 0.00 99 1015.9
20260905122803 21 3 0.0 1.6 0.00 0.00 0.00 99 1015.8
20260905122306 21 8 1.6 3.2 0.00 0.00 0.00 99 1015.8
20260905121758 21 357 3.2 3.2 0.00 0.00 0.00 99 1015.8
20260905121255 21 342 0.0 3.2 0.00 0.00 0.00 99 1015.8
20260905120753 21 4 1.6 1.6 0.00 0.00 0.00 98 1015.6
20260905120253 21 1 1.6 3.2 0.00 0.00 0.00 98 1015.5
20260905115749 21 318 0.0 3.2 0.00 0.00 0.00 98 1015.4
20260905115248 21 23 0.0 3.2 0.00 0.00 0.00 98 1015.4
20260905114748 21 11 0.0 3.2 0.00 0.00 0.00 98 1015.3
20260905114247 21 357 1.6 3.2 0.00 0.00 0.00 98 1015.3
20260905113746 21 308 1.6 3.2 0.00 0.00 0.00 98 1015.4
20260905113242 21 337 1.6 3.2 0.00 0.00 0.00 98 1015.1
20260905112738 21 315 0.0 1.6 0.00 0.00 0.00 98 1015.3
20260905112238 21 20 1.6 1.6 0.00 0.00 0.00 98 1015.3
20260905111732 21 305 0.0 1.6 0.00 0.00 0.00 98 1015.1
20260905111227 21 347 0.0 1.6 0.00 0.00 0.00 98 1015.1
20260905110726 21 10 3.2 3.2 0.00 0.00 0.00 98 1014.8
20260905110220 21 355 3.2 3.2 0.00 0.00 0.00 98 1015.0
20260905105716 21 10 3.2 3.2 0.00 0.00 0.00 98 1014.9
20260905105215 21 8 3.2 3.2 0.00 0.00 0.00 98 1014.9
20260905104710 21 0 3.2 3.2 0.00 0.00 0.00 98 1014.7
20260905104206 21 350 3.2 3.2 0.00 0.00 0.00 98 1015.0
20260905103701 21 20 3.2 3.2 0.00 0.00 0.00 98 1014.9
20260905103156 21 9 3.2 3.2 0.00 0.00 0.00 98 1014.9
20260905102652 21 312 3.2 3.2 0.00 0.00 0.00 98 1014.9
20260905102148 21 332 3.2 3.2 0.00 0.00 0.00 98 1014.8
20260905101647 21 357 1.6 1.6 0.00 0.00 0.00 98 1014.9
20260905101145 21 1 3.2 3.2 0.00 0.00 0.00 98 1014.8
20260905100642 21 1 3.2 3.2 0.00 0.00 0.00 98 1014.7
20260905100137 21 345 0.0 1.6 0.00 0.00 0.00 98 1014.6
20260905095630 21 0 1.6 3.2 0.00 0.00 0.00 98 1014.8
20260905095125 21 338 1.6 3.2 0.00 0.00 0.00 98 1014.6
20260905094621 21 331 0.0 1.6 0.00 0.00 0.00 98 1014.6
20260905094120 21 347 0.0 3.2 0.00 0.00 0.00 98 1014.5
20260905093621 21 358 3.2 3.2 0.00 0.00 0.00 98 1014.7
20260905093117 21 355 1.6 3.2 0.00 0.00 0.00 98 1014.4
20260905092616 21 354 1.6 3.2 0.00 0.00 0.00 97 1014.2
20260905092112 21 355 0.0 1.6 0.00 0.00 0.00 97 1014.5
20260905091611 21 357 1.6 1.6 0.00 0.00 0.00 97 1014.5
20260905091107 21 353 1.6 3.2 0.00 0.00 0.00 97 1014.4
20260905090606 21 13 3.2 3.2 0.00 0.00 0.00 97 1014.5
20260905085600 21 332 3.2 3.2 0.00 0.00 0.00 97 1014.7
20260905085056 21 35 1.6 3.2 0.00 0.00 0.00 97 1014.7
20260905084556 21 341 0.0 3.2 0.00 0.00 0.00 97 1014.6
20260905084051 21 1 1.6 3.2 0.00 0.00 0.00 97 1014.7
20260905083550 21 359 3.2 3.2 0.00 0.00 0.00 97 1014.9
20260905083047 21 6 1.6 3.2 0.00 0.00 0.00 97 1014.8
20260905082542 21 354 3.2 3.2 0.00 0.00 0.00 97 1015.0
20260905082038 21 6 3.2 3.2 0.00 0.00 0.00 97 1014.9
20260905081537 21 355 3.2 3.2 0.00 0.00 0.00 97 1015.0
20260905081033 21 357 3.2 3.2 0.00 0.00 0.00 97 1015.0
20260905080533 21 9 3.2 3.2 0.00 0.00 0.00 97 1014.9
20260905080028 21 341 3.2 3.2 0.00 0.00 0.00 97 1015.2
20260905075527 22 28 1.6 1.6 0.00 0.00 0.00 97 1015.2
20260905075027 22 20 3.2 3.2 0.00 0.00 0.00 97 1015.2
20260905074521 22 353 3.2 3.2 0.00 0.00 0.00 96 1015.1
20260905074017 22 0 0.0 3.2 0.00 0.00 0.00 96 1015.3
20260905073512 22 346 3.2 3.2 0.00 0.00 0.00 96 1015.3
20260905073008 22 335 3.2 3.2 0.00 0.00 0.00 96 1015.3
20260905072501 22 220 0.0 0.0 0.00 0.00 0.00 96 1015.2
20260905071957 22 57 0.0 0.0 0.00 0.00 0.00 96 1015.3
20260905071454 22 4 1.6 3.2 0.00 0.00 0.00 95 1015.3
20260905070953 22 356 1.6 1.6 0.00 0.00 0.00 95 1015.5
20260905070450 22 40 0.0 0.0 0.00 0.00 0.00 95 1015.6
20260905065949 22 2 0.0 1.6 0.00 0.00 0.00 95 1015.6
20260905065448 22 2 0.0 0.0 0.00 0.00 0.00 95 1015.6
20260905064943 22 319 0.0 0.0 0.00 0.00 0.00 94 1015.7
20260905064443 22 0 0.0 1.6 0.00 0.00 0.00 94 1015.7
20260905063938 22 18 1.6 3.2 0.00 0.00 0.00 94 1015.7
20260905063433 22 45 1.6 3.2 0.00 0.00 0.00 94 1015.8
20260905062930 22 50 1.6 3.2 0.00 0.00 0.00 95 1015.8
20260905062429 22 11 0.0 0.0 0.00 0.00 0.00 94 1015.7
20260905061925 22 344 0.0 3.2 0.00 0.00 0.00 94 1015.8
20260905061424 22 45 0.0 3.2 0.00 0.00 0.00 93 1016.0